Location: Huesca
(42.1318°N, 0.4078°W)
Time: 11:22:10
(UTC+01:00)

O/OREOS (USA 219) - Pass Details

Date: 14 November 2024
Orbit: 590 x 609 km, 72.0° (Epoch: 06 December)

Event Time Altitude Azimuth Distance (km) Brightness Sun altitude
Rises 19:51:06 0° 228° (SW) 2,822 ? -24.2°
Reaches altitude 10° 19:53:34 10° 240° (WSW) 1,922 ? -24.6°
Maximum altitude 19:57:19 28° 301° (WNW) 1,113 ? -25.3°
Enters shadow 19:59:52 16° 351° (N) 1,548 ? -25.8°
